Simultaneous Nadir Overpasses (SNOs) Predictions

Prediction of SNOs between GOES-14 and NPP Satellite Orbit:

Table of predicted SNOs for the next 14.0 days since TLE Epoch: 4/15/2023
Index Date Time (GOES-14) GOES-14 Lat,Lon NPP Lat,Lon Distance(km) Time Diff (sec)
1 04/15/2023 20:26:08 -0.18,-108.17 0.67,-104.40 429.93 80
2 04/17/2023 08:47:54 0.18,-108.17 0.50,-109.67 170.26 80
3 04/18/2023 08:26:29 0.18,-108.18 -0.52,-105.14 346.96 80
4 04/19/2023 20:48:23 -0.18,-108.20 -0.70,-110.43 255.42 80
5 04/20/2023 20:32:18 -0.18,-108.21 0.32,-105.90 262.75 80
6 04/22/2023 08:54:04 0.17,-108.23 0.84,-111.18 335.88 80
7 04/23/2023 08:32:39 0.18,-108.23 -0.19,-106.65 181.26 80
8 04/24/2023 20:54:34 -0.17,-108.24 -0.97,-111.96 422.94 80
9 04/25/2023 20:38:27 -0.18,-108.25 0.00,-107.41 95.16 80
10 04/28/2023 08:38:47 0.18,-108.28 0.17,-108.14 15.54 80
